EIKY

Kerry Airport

Airport
ICAO code
EIKY
Summary
ICAO Region
EUR
ICAO Territory
Location

Farranfore, Killarney,

Elevation
112 ft
Coordinates
52° 10' 51" N , 9° 31' 26" W
KCC
Airport WX
Fog
Metar
Observation
EIKY 241830Z 34006KT 290V020 9999 FEW035 13/08 Q1025
Station
Kerry Airport
Date/Time
2022-09-24 18:30:00
Wind direction
340°
Wind speed
06 kts
Lowest cloud amount
few clouds
Temperature
13°C
Dew point
8°C
Humidity
71%
QNH
1025 hPa
Weather condition
n/a

Description

Small airport 7 nm north of Killarney, Ireland.

Climatology

Temperate Marine climate/Oceanic climate (Köppen climate classification Cfb). Moderately cool summer and comparatively warm winter with a temperature range of only 14°C. Prevailing south-westerly winds from the Atlantic Ocean.

Runways

Designator Length Width Surface Rops
7/25 1230 30 ASP No/No
8/26 2000 45 ASP Yes/Yes

SKYbrary Partners:

Safety knowledge contributed by: